EN

Hourly Weather Aberkenfig

Today, 19 June, Saturday

Time Temperature Precipitation Wind Pressure Humidity
00:00 +13°C° 0 mm 1 mps 751 mmHg 91%
01:00 +13°C° 0 mm 1 mps 751 mmHg 91%
02:00 +12°C° 0 mm 2 mps 751 mmHg 92%
03:00 +12°C° 0 mm 2 mps 751 mmHg 92%
04:00 +12°C° 0 mm 2 mps 751 mmHg 92%
05:00 +13°C° 0 mm 2 mps 750 mmHg 91%
06:00 +13°C° 0 mm 2 mps 750 mmHg 91%
07:00 +13°C° 0 mm 2 mps 750 mmHg 88%
08:00 +13°C° 0 mm 3 mps 750 mmHg 84%
09:00 +14°C° 0 mm 3 mps 750 mmHg 81%
10:00 +14°C° 0 mm 3 mps 750 mmHg 80%
11:00 +15°C° 0 mm 4 mps 749 mmHg 79%
12:00 +15°C° 0 mm 4 mps 749 mmHg 79%
13:00 +15°C° 0.1 mm 4 mps 749 mmHg 78%
14:00 +16°C° 0.1 mm 5 mps 748 mmHg 77%
15:00 +16°C° 0.1 mm 5 mps 748 mmHg 77%
16:00 +17°C° 0.1 mm 4 mps 747 mmHg 79%
17:00 +15°C° 0.1 mm 4 mps 747 mmHg 82%
18:00 +16°C° 0.1 mm 3 mps 746 mmHg 84%
19:00 +14°C° 0.1 mm 3 mps 746 mmHg 86%
20:00 +15°C° 0.1 mm 2 mps 746 mmHg 89%
21:00 +14°C° 0.1 mm 2 mps 746 mmHg 91%
22:00 +14°C° 0.1 mm 2 mps 746 mmHg 92%
23:00 +14°C° 0.1 mm 2 mps 745 mmHg 94%

Tomorrow, 20 June, Sunday

Time Temperature Precipitation Wind Pressure Humidity
00:00 +14°C° 0.1 mm 2 mps 745 mmHg 95%
01:00 +13°C° 0 mm 3 mps 745 mmHg 96%
02:00 +13°C° 0 mm 3 mps 744 mmHg 96%
03:00 +13°C° 0 mm 3 mps 744 mmHg 97%
04:00 +13°C° 0.1 mm 3 mps 744 mmHg 97%
05:00 +13°C° 0.1 mm 3 mps 744 mmHg 97%
06:00 +13°C° 0.1 mm 4 mps 744 mmHg 97%
07:00 +13°C° 0.1 mm 4 mps 744 mmHg 96%
08:00 +13°C° 0.1 mm 3 mps 744 mmHg 96%
09:00 +13°C° 0.1 mm 3 mps 745 mmHg 95%
10:00 +13°C° 0 mm 3 mps 745 mmHg 94%
11:00 +14°C° 0 mm 3 mps 745 mmHg 94%
12:00 +14°C° 0 mm 3 mps 745 mmHg 94%
13:00 +16°C° 0.1 mm 3 mps 745 mmHg 92%
14:00 +16°C° 0.1 mm 3 mps 745 mmHg 90%
15:00 +17°C° 0.1 mm 2 mps 745 mmHg 88%
16:00 +16°C° 0.1 mm 3 mps 745 mmHg 89%
17:00 +16°C° 0.1 mm 3 mps 745 mmHg 91%
18:00 +16°C° 0.1 mm 3 mps 745 mmHg 92%
19:00 +14°C° 0.1 mm 4 mps 745 mmHg 93%
20:00 +14°C° 0.1 mm 4 mps 745 mmHg 94%
21:00 +13°C° 0.1 mm 5 mps 746 mmHg 94%
22:00 +13°C° 0.1 mm 5 mps 745 mmHg 94%
23:00 +13°C° 0.1 mm 5 mps 745 mmHg 94%

Day after tomorrow, 21 June, Monday

Time Temperature Precipitation Wind Pressure Humidity
00:00 +12°C° 0.1 mm 5 mps 745 mmHg 95%
01:00 +12°C° 0.1 mm 5 mps 745 mmHg 95%
02:00 +12°C° 0.1 mm 5 mps 745 mmHg 95%
03:00 +12°C° 0.1 mm 5 mps 745 mmHg 95%
04:00 +11°C° 0.1 mm 6 mps 746 mmHg 94%
05:00 +10°C° 0.1 mm 6 mps 746 mmHg 94%
06:00 +10°C° 0.1 mm 7 mps 746 mmHg 94%
07:00 +10°C° 0.3 mm 7 mps 746 mmHg 93%
08:00 +10°C° 0.3 mm 8 mps 746 mmHg 93%
09:00 +10°C° 0.3 mm 8 mps 746 mmHg 92%
10:00 +10°C° 1.2 mm 8 mps 747 mmHg 93%
11:00 +10°C° 1.2 mm 8 mps 747 mmHg 93%
12:00 +10°C° 1.2 mm 8 mps 747 mmHg 94%
13:00 +10°C° 1.6 mm 9 mps 747 mmHg 94%
14:00 +10°C° 1.6 mm 9 mps 747 mmHg 94%
15:00 +9°C° 1.6 mm 10 mps 748 mmHg 94%
16:00 +9°C° 0.8 mm 10 mps 748 mmHg 93%
17:00 +9°C° 0.8 mm 10 mps 748 mmHg 93%
18:00 +9°C° 0.8 mm 10 mps 749 mmHg 93%
19:00 +8°C° 0.3 mm 10 mps 749 mmHg 92%
20:00 +8°C° 0.3 mm 10 mps 750 mmHg 92%
21:00 +8°C° 0.3 mm 9 mps 750 mmHg 92%
22:00 +8°C° 0.3 mm 9 mps 750 mmHg 92%
23:00 +8°C° 0.3 mm 9 mps 751 mmHg 92%

22 June, Tuesday

Time Temperature Precipitation Wind Pressure Humidity
00:00 +8°C° 0.3 mm 9 mps 751 mmHg 92%
01:00 +9°C° 0.3 mm 8 mps 751 mmHg 92%
02:00 +9°C° 0.3 mm 8 mps 751 mmHg 92%
03:00 +9°C° 0.3 mm 8 mps 752 mmHg 92%
04:00 +9°C° 0.2 mm 8 mps 752 mmHg 92%
05:00 +9°C° 0.2 mm 8 mps 752 mmHg 91%
06:00 +7°C° 0.2 mm 8 mps 752 mmHg 91%
07:00 +9°C° 0.1 mm 8 mps 753 mmHg 89%
08:00 +9°C° 0.1 mm 8 mps 753 mmHg 86%
09:00 +10°C° 0.1 mm 7 mps 754 mmHg 83%
10:00 +10°C° 0 mm 7 mps 754 mmHg 82%
11:00 +10°C° 0 mm 7 mps 754 mmHg 81%
12:00 +10°C° 0 mm 7 mps 754 mmHg 80%
13:00 +11°C° 0.1 mm 6 mps 755 mmHg 80%
14:00 +12°C° 0.1 mm 5 mps 755 mmHg 81%
15:00 +12°C° 0.1 mm 4 mps 755 mmHg 82%
16:00 +12°C° 0 mm 4 mps 755 mmHg 80%
17:00 +13°C° 0 mm 4 mps 755 mmHg 79%
18:00 +13°C° 0 mm 4 mps 755 mmHg 78%
19:00 +13°C° 0 mm 4 mps 755 mmHg 79%
20:00 +12°C° 0 mm 3 mps 756 mmHg 80%
21:00 +12°C° 0 mm 3 mps 756 mmHg 81%
22:00 +12°C° 0 mm 4 mps 756 mmHg 80%
23:00 +11°C° 0 mm 4 mps 756 mmHg 80%

23 June, Wednesday

Time Temperature Precipitation Wind Pressure Humidity
00:00 +10°C° 0 mm 5 mps 756 mmHg 79%
01:00 +10°C° 0 mm 4 mps 756 mmHg 80%
02:00 +10°C° 0 mm 4 mps 756 mmHg 82%
03:00 +8°C° 0 mm 4 mps 756 mmHg 83%
04:00 +8°C° 0 mm 4 mps 756 mmHg 83%
05:00 +10°C° 0 mm 4 mps 756 mmHg 83%
06:00 +10°C° 0 mm 4 mps 756 mmHg 83%
07:00 +11°C° 0 mm 4 mps 756 mmHg 76%
08:00 +13°C° 0 mm 4 mps 756 mmHg 69%
09:00 +14°C° 0 mm 4 mps 756 mmHg 62%
10:00 +16°C° 0 mm 3 mps 756 mmHg 59%
11:00 +17°C° 0 mm 3 mps 756 mmHg 56%
12:00 +18°C° 0 mm 3 mps 756 mmHg 53%
13:00 +18°C° 0 mm 3 mps 756 mmHg 53%
14:00 +19°C° 0 mm 2 mps 756 mmHg 52%
15:00 +19°C° 0 mm 2 mps 756 mmHg 52%
16:00 +19°C° 0 mm 2 mps 756 mmHg 58%
17:00 +18°C° 0 mm 2 mps 756 mmHg 64%
18:00 +18°C° 0 mm 2 mps 756 mmHg 70%
19:00 +16°C° 0 mm 2 mps 756 mmHg 74%
20:00 +14°C° 0 mm 2 mps 756 mmHg 79%
21:00 +12°C° 0 mm 2 mps 756 mmHg 84%
22:00 +12°C° 0 mm 2 mps 756 mmHg 84%
23:00 +10°C° 0 mm 2 mps 756 mmHg 84%

24 June, Thursday

Time Temperature Precipitation Wind Pressure Humidity
00:00 +10°C° 0 mm 2 mps 756 mmHg 83%
01:00 +11°C° 0 mm 1 mps 756 mmHg 83%
02:00 +11°C° 0 mm 1 mps 756 mmHg 83%
03:00 +10°C° 0 mm 1 mps 756 mmHg 83%
04:00 +11°C° 0 mm 1 mps 756 mmHg 82%
05:00 +12°C° 0 mm 1 mps 755 mmHg 80%
06:00 +13°C° 0 mm 1 mps 755 mmHg 79%
07:00 +14°C° 0 mm 2 mps 755 mmHg 74%
08:00 +16°C° 0 mm 2 mps 755 mmHg 69%
09:00 +17°C° 0 mm 3 mps 755 mmHg 65%
10:00 +18°C° 0 mm 3 mps 755 mmHg 66%
11:00 +18°C° 0 mm 4 mps 755 mmHg 68%
12:00 +19°C° 0 mm 4 mps 755 mmHg 70%
13:00 +18°C° 0 mm 4 mps 754 mmHg 71%
14:00 +17°C° 0 mm 5 mps 754 mmHg 72%
15:00 +17°C° 0 mm 5 mps 754 mmHg 74%
16:00 +16°C° 0 mm 5 mps 753 mmHg 75%
17:00 +15°C° 0 mm 5 mps 753 mmHg 76%
18:00 +15°C° 0 mm 5 mps 753 mmHg 78%
19:00 +14°C° 0 mm 4 mps 753 mmHg 83%
20:00 +12°C° 0 mm 4 mps 753 mmHg 87%
21:00 +11°C° 0 mm 3 mps 753 mmHg 92%
22:00 +11°C° 0.1 mm 3 mps 753 mmHg 93%
23:00 +11°C° 0.1 mm 3 mps 752 mmHg 94%
Show more